Retour au catalogue

STARLINK-35741

ActifCommunicationsVLEO
NORAD 66272·PAYLOAD·🇺🇸 United States

Lancé Oct 31, 2025 depuis Vandenberg Space Force Base

Loading…

Prochains Passages (prochaines 24 heures)

TLE

FraisSource: CelesTrak SupGP

Époque: Sep 14, 2026, 15:53 UTC

1 66272C 25247H   26257.66229167  .00002157  00000+0  63718-4 0  2574
2 66272  53.1593  29.0715 0000972  62.4801 213.2813 15.34394437    18

Suivez STARLINK-35741 en temps réel avec AllMySat

Download on the App Store